Temp
-2 -2 -2 -3 -4 -5 -5 -4 -5 -5 -5 -5 -5 -5 -4 -4 -4 -4 -4 -3 -3 -3 -3 -3 -3 -2 -2 -2 -2 -2 -2 -2 -2 -2 -2 -1 -1 -1
-3 -3 -3 -4 -5 -5 -6 -6 -5 -5 -6 -5 -5 -5 -5 -5 -4 -4 -4 -4 -4 -4 -4 -4 -3 -3 -3 -3 -3 -3 -3 -3 -3 -3 -2 -2 -2 -2
-4 -3 -3 -3 -4 -5 -5 -6 -5 -6 -6 -5 -5 -5 -5 -5 -5 -5 -5 -5 -5 -5 -5 -5 -5 -4 -4 -4 -4 -4 -4 -4 -4 -3 -3 -3 -3 -3
-4 -4 -4 -5 -5 -5 -6 -6 -6 -6 -6 -6 -6 -6 -6 -6 -6 -6 -6 -6 -6 -6 -6 -6 -6 -6 -6 -5 -5 -5 -5 -5 -5 -4 -4 -4 -4 -4
-4 -5 -6 -6 -6 -6 -6 -7 -7 -7 -7 -7 -7 -7 -7 -7 -7 -7 -7 -7 -7 -7 -7 -7 -7 -7 -7 -7 -6 -6 -6 -6 -6 -5 -5 -5 -5 -5
-6 -7 -7 -7 -7 -7 -7 -7 -7 -7 -7 -7 -8 -8 -8 -7 -8 -8 -8 -8 -8 -8 -8 -8 -8 -8 -8 -8 -8 -7 -7 -8 -7 -7 -7 -7 -7 -7
-7 -7 -7 -7 -7 -8 -8 -8 -8 -8 -8 -8 -8 -8 -8 -9 -9 -9 -9 -9 -9 -9 -9 -9 -9 -9 -9 -9 -9 -9 -9 -9 -8 -8 -8 -8 -8 -8
-7 -8 -8 -8 -8 -8 -8 -8 -9 -9 -9 -9 -9 -9 -9 -9 -9 -9 -9 -9 -10 -9 -9 -10 -10 -10 -9 -9 -9 -9 -10 -10 -10 -10 -9 -9 -9 -9
-8 -8 -8 -8 -9 -9 -9 -9 -9 -10 -10 -10 -10 -10 -10 -10 -10 -10 -10 -10 -10 -11 -10 -10 -10 -11 -11 -10 -10 -10 -10 -10 -10 -10 -10 -10 -10 -10
-9 -9 -9 -9 -10 -10 -10 -10 -10 -10 -11 -11 -11 -11 -11 -11 -11 -11 -11 -11 -11 -11 -11 -10 -11 -11 -11 -11 -11 -11 -11 -11 -11 -11 -11 -11 -11 -11
-10 -10 -10 -10 -11 -11 -11 -11 -11 -11 -11 -12 -12 -12 -12 -12 -12 -11 -12 -11 -11 -11 -12 -11 -11 -11 -11 -11 -12 -12 -12 -12 -12 -12 -12 -12 -12 -12
-11 -11 -11 -11 -11 -12 -12 -12 -12 -12 -12 -12 -12 -12 -12 -12 -12 -12 -12 -12 -12 -12 -13 -12 -12 -12 -11 -11 -12 -12 -13 -13 -13 -13 -13 -13 -13 -13
-12 -12 -12 -12 -12 -12 -12 -12 -13 -13 -12 -13 -13 -13 -13 -13 -13 -13 -13 -13 -13 -13 -13 -13 -13 -13 -13 -12 -12 -12 -13 -13 -13 -13 -14 -14 -14 -14
-12 -12 -12 -12 -13 -13 -13 -13 -13 -13 -13 -14 -13 -13 -13 -13 -13 -13 -13 -13 -13 -13 -13 -13 -13 -13 -13 -13 -13 -13 -14 -14 -14 -14 -15 -15 -16 -17
-13 -13 -13 -13 -13 -13 -14 -14 -14 -14 -14 -14 -14 -14 -14 -14 -14 -14 -14 -14 -14 -14 -14 -14 -14 -14 -14 -14 -14 -13 -14 -14 -15 -16 -16 -16 -17 -17
-13 -13 -13 -14 -14 -14 -14 -14 -14 -14 -14 -14 -14 -14 -14 -14 -14 -14 -14 -14 -14 -14 -15 -15 -15 -15 -15 -15 -15 -15 -16 -16 -17 -17 -18 -18 -18 -19
-14 -14 -14 -14 -14 -15 -15 -15 -15 -15 -15 -15 -15 -15 -15 -15 -15 -15 -15 -15 -15 -15 -15 -16 -16 -16 -16 -17 -17 -17 -18 -18 -19 -19 -20 -20 -20 -21
-14 -14 -14 -15 -15 -15 -15 -15 -15 -15 -15 -15 -15 -15 -15 -15 -15 -15 -15 -15 -15 -16 -16 -16 -17 -17 -17 -18 -19 -19 -20 -20 -21 -21 -21 -22 -23 -23
-14 -15 -15 -15 -15 -15 -16 -15 -15 -15 -15 -15 -15 -16 -16 -16 -16 -16 -16 -16 -16 -16 -17 -17 -18 -19 -19 -18 -19 -21 -21 -21 -22 -22 -23 -23 -24 -24
-15 -15 -15 -15 -15 -15 -15 -16 -16 -16 -16 -16 -16 -16 -16 -16 -16 -17 -17 -17 -17 -17 -18 -19 -20 -20 -21 -20 -20 -20 -22 -22 -23 -23 -23 -24 -24 -24
-15 -15 -15 -15 -16 -16 -16 -16 -16 -16 -16 -16 -17 -17 -17 -17 -17 -17 -17 -18 -18 -18 -18 -19 -21 -21 -22 -22 -21 -21 -22 -23 -23 -24 -24 -24 -24 -24
-15 -15 -16 -16 -16 -16 -16 -16 -16 -17 -17 -17 -17 -17 -17 -18 -18 -18 -18 -18 -19 -20 -20 -21 -21 -22 -22 -23 -22 -22 -22 -23 -23 -24 -24 -24 -24 -24
-16 -16 -16 -16 -16 -17 -17 -17 -17 -17 -18 -18 -18 -18 -18 -18 -19 -19 -19 -20 -20 -20 -21 -22 -22 -22 -23 -23 -23 -23 -22 -23 -23 -23 -23 -24 -24 -24
Height
3146 3147 3147 3148 3150 3151 3153 3155 3156 3156 3157 3158 3158 3158 3158 3159 3160 3160 3160 3161 3161 3161 3161 3161 3160 3161 3161 3160 3160 3159 3159 3159 3158 3157 3157 3157 3157 3155
3138 3140 3140 3141 3142 3143 3144 3146 3147 3149 3149 3150 3150 3151 3151 3152 3152 3152 3153 3153 3153 3153 3153 3153 3153 3152 3152 3151 3151 3150 3150 3150 3149 3148 3147 3147 3146 3146
3131 3132 3133 3134 3135 3136 3137 3138 3139 3140 3141 3142 3143 3144 3145 3144 3145 3145 3145 3145 3144 3144 3144 3144 3144 3143 3143 3143 3142 3141 3141 3140 3140 3138 3138 3137 3136 3136
3124 3125 3126 3127 3128 3128 3129 3130 3131 3133 3134 3135 3136 3136 3136 3137 3137 3137 3137 3137 3137 3136 3136 3135 3135 3135 3134 3134 3133 3133 3132 3131 3130 3128 3127 3127 3126 3124
3116 3117 3118 3119 3121 3121 3123 3124 3124 3126 3127 3128 3128 3129 3129 3129 3129 3129 3128 3128 3128 3128 3127 3127 3127 3126 3124 3123 3123 3122 3121 3121 3120 3119 3118 3116 3116 3115
3110 3111 3112 3113 3114 3115 3116 3117 3117 3119 3120 3120 3121 3121 3121 3121 3121 3120 3120 3120 3120 3120 3118 3118 3117 3116 3115 3115 3114 3113 3112 3111 3110 3109 3108 3107 3105 3104
3104 3105 3106 3107 3108 3108 3109 3110 3110 3111 3112 3113 3113 3113 3114 3114 3113 3113 3113 3113 3112 3112 3111 3109 3109 3108 3106 3106 3105 3104 3103 3102 3100 3099 3098 3096 3096 3094
3100 3101 3101 3102 3103 3103 3104 3104 3105 3105 3105 3105 3106 3106 3107 3107 3107 3106 3106 3105 3105 3104 3103 3102 3100 3099 3098 3097 3095 3094 3094 3092 3091 3089 3088 3086 3085 3084
3095 3096 3097 3097 3098 3099 3099 3099 3099 3100 3100 3100 3100 3100 3100 3100 3100 3099 3098 3098 3097 3096 3093 3095 3092 3092 3088 3087 3086 3085 3084 3083 3081 3079 3077 3076 3074 3073
3090 3091 3091 3092 3092 3093 3093 3093 3094 3094 3094 3093 3093 3092 3092 3092 3091 3091 3090 3088 3088 3087 3083 3082 3083 3081 3080 3077 3075 3074 3073 3071 3069 3068 3066 3064 3063 3061
3084 3084 3085 3086 3086 3086 3086 3087 3087 3087 3087 3087 3087 3086 3085 3085 3083 3082 3081 3080 3079 3077 3076 3070 3071 3070 3069 3068 3066 3063 3062 3060 3058 3056 3055 3053 3051 3049
3077 3078 3078 3079 3079 3080 3080 3080 3081 3080 3080 3080 3080 3079 3078 3076 3075 3073 3072 3070 3069 3068 3068 3065 3062 3060 3060 3059 3058 3055 3052 3050 3047 3046 3043 3041 3039 3037
3070 3071 3072 3072 3073 3073 3073 3074 3073 3072 3072 3072 3071 3070 3069 3068 3067 3065 3063 3062 3060 3058 3058 3055 3053 3051 3047 3045 3047 3045 3042 3039 3037 3035 3034 3031 3029 3026
3064 3065 3065 3066 3066 3066 3066 3066 3066 3065 3065 3064 3064 3063 3062 3060 3059 3057 3055 3053 3050 3048 3047 3045 3043 3040 3037 3036 3033 3033 3031 3029 3026 3023 3021 3019 3017 3015
3057 3057 3058 3058 3058 3059 3058 3058 3058 3057 3057 3056 3055 3055 3053 3052 3050 3049 3047 3044 3042 3040 3037 3035 3033 3030 3027 3024 3021 3020 3017 3017 3014 3011 3008 3007 3004 3002
3050 3050 3051 3051 3051 3051 3051 3051 3050 3050 3049 3048 3048 3046 3045 3043 3042 3039 3037 3036 3033 3032 3029 3026 3023 3019 3016 3014 3010 3007 3005 3002 3000 2998 2995 2992 2991 2990
3043 3044 3044 3044 3044 3044 3044 3044 3043 3042 3041 3040 3039 3037 3036 3034 3032 3030 3027 3025 3023 3021 3020 3018 3014 3010 3006 3002 2999 2996 2993 2990 2987 2985 2983 2979 2979 2978
3036 3037 3038 3038 3037 3037 3036 3036 3035 3034 3033 3031 3030 3029 3027 3025 3022 3021 3018 3015 3013 3010 3007 3005 3002 2999 2997 2994 2989 2983 2980 2977 2976 2973 2971 2968 2966 2968
3030 3030 3030 3030 3030 3029 3028 3028 3027 3025 3023 3022 3020 3018 3016 3014 3012 3010 3008 3005 3002 2999 2996 2993 2989 2986 2981 2978 2980 2976 2971 2967 2965 2963 2962 2960 2957 2957
3023 3023 3022 3022 3021 3021 3020 3018 3017 3016 3014 3012 3010 3008 3006 3003 3002 2999 2997 2994 2991 2988 2985 2982 2979 2975 2970 2966 2963 2965 2964 2958 2955 2953 2951 2950 2947 2947
3014 3014 3013 3013 3012 3011 3010 3008 3007 3006 3004 3002 3000 2998 2995 2993 2991 2989 2986 2983 2980 2977 2974 2972 2969 2965 2960 2957 2953 2954 2953 2951 2947 2943 2942 2940 2939 2938
3004 3004 3003 3003 3002 3001 3000 2998 2996 2995 2993 2991 2989 2987 2985 2982 2980 2978 2975 2972 2970 2966 2963 2961 2958 2955 2952 2948 2945 2943 2942 2942 2940 2936 2934 2932 2930 2926
2994 2994 2993 2993 2992 2990 2989 2987 2986 2984 2983 2981 2978 2976 2974 2971 2969 2967 2964 2961 2958 2955 2953 2950 2948 2945 2942 2940 2937 2935 2934 2932 2930 2929 2928 2926 2923 2921
Wind_Speed
23 24 27 34 40 38 41 44 44 36 36 33 32 32 30 29 29 29 30 32 33 34 35 35 35 35 35 36 36 37 37 37 37 37 37 37 37 38
26 24 25 28 32 35 35 37 41 41 39 34 31 29 29 29 29 29 30 31 32 33 33 34 34 35 35 35 36 36 36 36 37 37 37 37 37 37
25 25 25 26 27 31 33 34 31 29 30 29 29 29 29 29 30 30 31 30 31 31 32 32 32 33 33 34 34 35 35 36 36 37 38 38 38 38
27 27 26 26 27 29 30 29 29 29 28 28 28 29 29 29 30 29 30 30 31 31 32 32 33 33 34 35 36 37 38 38 39 40 41 41 41 42
28 26 25 24 25 25 27 28 28 27 27 27 27 28 29 31 31 31 32 32 32 33 33 33 33 33 34 34 35 35 36 37 37 38 39 39 39 40
23 23 23 23 23 24 25 26 27 27 27 28 28 28 29 29 29 29 29 29 29 29 29 29 29 30 31 31 32 33 34 34 35 36 36 37 38 38
19 19 20 21 21 22 22 23 24 25 25 25 24 25 25 25 26 26 26 26 27 27 27 28 28 29 30 30 31 31 32 33 33 34 34 35 36 36
16 17 17 18 18 19 19 19 20 20 20 21 21 22 22 23 23 24 24 25 25 28 28 28 29 29 30 30 32 32 31 33 33 35 35 36 37 37
15 16 17 17 17 17 18 18 19 19 20 21 22 22 22 23 24 25 26 27 27 28 31 29 31 30 33 35 35 35 35 35 36 37 38 38 39 40
18 19 19 19 19 19 20 20 20 21 22 23 23 24 24 26 26 27 28 30 30 30 34 35 32 34 34 36 37 37 37 38 39 39 40 40 41 42
19 19 19 20 20 20 21 21 22 23 24 24 25 26 27 28 29 30 31 33 32 32 31 36 33 33 33 32 33 34 35 36 37 38 38 40 40 41
19 20 20 21 21 22 22 23 23 25 25 26 26 27 28 29 29 30 29 28 28 27 26 29 31 32 32 30 31 32 34 35 36 36 37 38 39 40
19 20 20 21 22 23 23 23 24 26 26 26 27 27 25 24 24 26 27 28 29 31 29 32 32 34 36 38 35 35 37 38 38 39 38 38 40 41
21 22 22 23 23 24 25 25 25 26 24 23 21 22 23 25 26 28 29 31 32 34 33 33 35 36 38 38 39 37 38 38 40 42 41 40 39 39
24 25 25 25 25 25 25 24 23 21 22 22 24 25 26 28 29 30 31 32 33 34 34 35 35 36 37 40 41 42 43 42 41 41 42 41 41 40
25 26 26 26 25 23 20 21 22 23 24 25 26 27 28 29 30 31 32 32 33 32 32 34 35 38 40 41 43 45 44 44 44 42 41 42 41 40
25 23 22 20 19 20 22 23 24 25 27 28 28 29 29 30 30 31 32 32 33 33 33 32 34 38 41 42 44 43 43 43 41 40 40 42 41 39
21 20 20 21 22 23 25 25 26 27 28 29 28 29 29 30 31 31 32 33 34 35 37 37 39 40 40 40 39 41 42 41 38 37 35 36 36 32
22 22 22 23 24 25 26 27 28 29 29 29 30 30 31 32 33 33 33 34 35 36 38 39 39 39 41 43 38 34 38 37 35 33 32 32 34 34
23 24 24 25 26 27 28 28 29 29 30 31 31 32 33 34 34 34 35 36 36 38 39 37 36 37 39 40 41 36 30 32 32 33 30 27 29 30
26 25 26 27 27 28 29 30 31 31 32 32 33 33 34 36 36 36 36 37 38 38 39 36 34 34 35 36 37 33 29 27 30 33 33 34 34 38
27 27 28 29 29 29 30 32 33 33 33 34 34 35 35 36 36 37 37 37 37 37 37 35 33 33 33 33 34 32 28 25 24 26 32 36 38 36
30 31 31 31 31 31 32 33 34 34 34 34 35 36 37 37 37 38 37 37 37 37 35 34 33 32 31 31 31 30 27 25 23 22 22 23 25 25
Wind_Direction
273 271 266 252 250 255 254 256 262 265 271 271 269 268 267 266 265 264 265 266 267 269 271 273 274 274 274 274 275 276 276 275 275 275 275 274 273 272
278 272 269 263 259 261 261 260 261 264 267 269 268 265 266 267 267 267 267 268 268 270 272 273 274 275 275 275 275 275 276 276 276 276 276 276 276 275
271 270 265 262 261 258 261 265 266 264 264 262 263 265 267 268 269 270 270 270 271 271 271 271 272 273 274 274 275 275 275 275 275 275 276 276 276 277
270 267 264 259 262 261 260 261 261 261 260 260 261 264 266 267 268 269 270 271 272 273 273 273 274 274 274 274 273 274 274 275 274 274 273 275 276 276
263 263 262 262 262 262 261 261 261 263 263 263 264 265 267 268 270 271 272 273 274 274 275 275 276 276 276 276 275 275 276 277 277 277 276 275 275 275
255 256 258 258 259 259 259 261 263 264 265 265 266 267 268 269 270 271 271 273 274 275 275 276 276 276 277 279 280 278 277 277 277 277 277 277 277 276
252 255 257 258 258 258 258 259 260 261 261 263 264 265 265 266 267 270 273 275 275 276 278 279 279 278 279 280 279 279 279 279 279 278 278 277 277 276
249 251 254 257 258 259 260 260 261 262 263 264 264 265 268 269 270 271 272 273 275 277 277 279 280 280 280 280 279 279 278 279 279 279 279 278 278 277
262 264 264 265 265 266 266 265 264 266 267 269 270 271 273 273 274 276 277 277 277 277 278 278 280 281 281 281 282 282 282 280 279 279 278 277 277 277
262 264 265 266 266 265 266 266 267 266 267 268 269 273 275 277 279 279 280 280 281 282 283 283 281 281 281 283 284 283 282 282 281 279 279 278 278 277
265 266 266 265 265 266 266 267 267 268 270 270 272 274 276 277 278 279 280 281 283 282 283 284 284 283 283 284 284 284 284 283 282 282 282 281 281 279
263 264 265 266 267 268 269 270 270 270 272 274 275 276 276 278 281 282 282 283 285 285 284 283 287 288 285 284 283 283 284 285 285 284 283 283 283 283
264 266 266 267 269 270 271 272 272 274 276 279 278 280 281 281 281 283 286 288 288 288 289 289 289 289 290 290 288 287 286 286 285 283 283 282 282 282
267 268 269 270 271 272 274 275 275 275 277 274 277 279 281 283 285 287 287 288 289 291 291 291 291 290 290 290 292 290 289 287 287 286 286 285 283 282
268 268 269 270 271 273 275 275 274 276 279 281 283 285 286 287 287 287 288 289 290 291 293 293 292 292 293 294 295 294 293 291 289 288 286 285 283 280
266 268 270 272 273 273 271 272 275 278 281 283 285 286 286 287 288 288 288 289 290 291 293 293 294 294 294 294 294 294 294 293 292 291 289 286 283 282
267 268 268 268 269 270 270 272 275 279 283 285 286 286 287 287 288 288 290 291 292 293 293 292 292 293 293 295 293 294 294 292 290 290 287 286 285 287
265 268 270 271 270 270 271 275 279 280 279 280 283 285 287 289 290 292 294 294 295 296 297 297 296 294 293 292 294 294 291 292 292 291 289 287 288 288
272 273 272 270 270 271 274 277 279 280 283 285 287 289 290 291 291 293 293 293 295 298 298 299 298 297 295 293 291 284 290 292 291 291 292 285 286 287
273 272 271 271 271 273 276 278 280 282 284 285 286 288 289 290 291 293 294 295 296 297 298 298 298 296 292 293 293 294 292 290 288 286 284 279 279 284
272 272 272 272 274 276 279 280 281 283 284 285 286 288 288 290 291 293 294 295 296 297 297 297 295 291 290 290 292 295 294 289 286 283 277 275 280 279
271 271 271 273 276 277 278 280 282 284 285 286 286 286 287 288 290 291 291 293 294 294 295 294 291 288 287 288 291 294 295 292 284 282 276 278 286 292
271 271 272 273 275 277 279 280 282 283 284 285 285 285 287 288 289 290 291 292 293 292 291 290 287 286 285 286 287 291 292 293 289 284 281 283 284 290